RH
28 29 30 30 32 34 33 33 29 24 24 26 26 26 29 30 31 33 35 36 37 39 39 37 35 33 31 28 22 21 20 18 17 16 16 16 15 15 17 18 20 23 26 28 28 29 29 31 32 33 35 36 36 36 37 40 41 42 41 38 36 36 34 33 33 34 35 37 39 38 37 36 37 39 38 38 38 36 37 39 41 42 40 40 41 43 41 41
26 24 27 30 31 32 32 33 31 28 23 22 23 26 28 29 31 31 31 32 34 37 36 34 31 31 32 28 23 22 21 20 18 16 18 17 17 16 15 16 17 20 23 26 28 29 30 32 33 33 34 35 34 34 36 39 40 40 39 37 35 34 34 33 32 32 33 34 37 37 36 35 34 36 37 39 40 34 34 38 39 40 41 40 40 41 39 40
31 27 27 31 30 29 31 33 33 32 29 23 20 21 24 27 28 26 26 27 29 31 30 29 27 26 29 29 26 23 22 22 20 23 23 19 20 20 17 15 16 18 20 24 27 29 30 32 33 33 33 33 32 32 34 37 38 38 38 36 34 33 33 33 31 31 32 33 36 36 36 37 34 35 36 38 39 35 34 36 35 35 39 40 39 39 38 39
34 31 28 28 26 26 30 31 31 31 31 28 23 19 19 21 24 23 23 22 20 22 22 24 25 23 24 27 25 24 28 26 23 29 26 20 22 22 20 18 16 16 18 21 24 27 29 32 33 32 32 31 30 30 33 34 35 36 36 35 33 32 33 33 31 30 32 32 35 35 35 37 34 35 36 35 36 36 35 34 31 30 35 38 38 40 39 39
32 30 27 24 23 26 28 28 27 28 28 29 28 24 20 18 21 20 20 20 16 17 17 18 21 21 21 23 22 25 30 28 29 33 27 23 24 22 22 21 19 18 18 21 23 25 27 31 32 31 30 29 28 28 30 30 32 35 33 32 32 32 33 31 30 30 31 32 34 34 34 34 34 34 34 33 34 34 35 35 30 28 32 36 34 36 38 39
26 25 25 23 23 25 26 27 27 26 26 27 28 28 25 22 22 20 18 19 17 15 17 17 18 19 17 19 22 25 28 27 33 37 31 30 27 23 23 21 22 21 20 25 26 25 26 30 30 30 29 28 28 27 28 29 30 32 30 30 31 33 32 31 30 30 31 31 32 33 33 33 32 32 32 32 32 32 32 33 31 29 32 34 33 33 35 38
24 24 25 23 24 25 25 26 27 26 24 24 25 27 27 25 24 22 21 21 19 17 18 18 17 16 13 16 24 28 27 25 29 31 30 33 30 27 24 21 22 22 24 28 26 24 24 27 29 28 27 27 27 26 27 28 29 29 28 28 29 31 30 30 30 29 30 30 30 31 32 32 31 31 32 31 29 30 31 30 30 31 32 35 35 33 33 35
23 25 27 27 25 26 25 26 26 24 24 23 23 24 26 26 23 21 20 23 23 21 20 18 17 15 12 19 25 24 24 23 24 25 26 29 30 29 28 24 22 21 27 31 27 22 22 24 26 28 27 27 26 26 26 27 27 27 27 27 27 29 28 29 30 28 29 29 29 29 30 31 30 31 33 30 29 31 31 31 30 32 35 36 37 35 34 36
24 25 27 29 28 28 26 25 25 24 25 24 24 23 24 24 23 19 17 20 23 23 21 19 18 14 14 24 27 21 19 19 20 23 25 26 27 27 27 27 24 23 26 31 29 22 19 21 23 27 28 27 27 26 26 26 27 26 26 27 27 27 26 28 28 28 29 28 28 28 28 30 30 31 31 30 31 32 32 31 32 34 36 38 38 38 36 37
28 27 27 28 29 29 27 26 26 26 26 26 25 25 24 24 24 21 17 18 20 22 21 20 19 18 21 27 25 18 17 17 17 19 21 24 27 26 26 25 25 26 26 28 29 24 20 19 20 25 27 28 28 26 27 26 26 26 26 27 28 27 27 27 27 27 28 28 27 27 27 28 29 30 29 32 34 33 32 32 33 35 35 38 38 39 39 39
32 32 31 30 30 31 30 29 29 29 29 28 26 25 26 25 25 24 21 20 20 20 20 20 19 23 28 27 23 19 15 15 15 15 17 19 23 26 27 25 24 27 28 28 28 26 23 21 20 22 25 27 28 27 27 26 26 26 26 27 28 27 27 27 27 27 27 27 27 26 27 27 28 28 28 33 33 31 34 33 34 35 35 37 39 40 42 42
37 39 38 36 36 36 36 34 33 32 32 31 29 27 27 26 27 26 23 21 21 20 20 21 21 27 32 27 25 19 14 13 13 13 15 16 19 22 25 26 25 26 29 30 29 27 25 24 21 20 21 23 25 28 27 26 26 26 26 27 27 27 27 27 26 27 26 27 27 27 28 26 27 27 28 33 33 34 37 34 33 35 35 37 38 40 42 43
41 41 41 39 39 40 39 38 37 37 38 37 34 30 29 28 29 28 25 23 23 21 22 22 24 32 33 28 24 17 12 13 11 12 14 16 18 21 24 25 26 28 30 30 31 28 25 26 24 21 20 20 23 26 25 25 26 26 26 26 27 27 27 26 26 26 26 27 27 27 27 26 26 26 28 34 36 37 38 34 32 33 35 37 38 40 41 42
43 41 42 42 41 42 41 41 41 43 44 43 40 37 33 32 30 28 27 25 25 25 25 25 28 35 34 29 22 14 13 14 12 14 16 19 21 23 25 25 25 28 29 30 32 31 28 27 26 23 21 21 23 22 22 25 26 27 27 26 27 27 25 24 25 25 25 26 26 27 26 24 25 25 28 35 36 34 32 31 31 32 34 36 38 39 39 42
45 44 45 44 44 44 43 44 45 45 47 47 45 43 41 38 34 30 29 29 29 28 28 31 35 38 35 29 24 17 16 17 16 17 19 21 22 23 25 27 28 28 28 30 33 34 31 29 28 24 22 22 22 21 21 24 25 26 28 27 26 24 22 23 24 24 24 25 25 26 24 22 24 25 31 35 33 30 28 28 29 31 34 35 37 38 39 42
46 46 45 45 45 44 45 47 48 49 50 49 48 47 47 45 42 39 37 36 34 33 36 41 42 41 35 30 27 21 19 19 19 19 19 20 21 21 24 28 29 29 29 29 34 36 33 32 29 25 24 23 22 21 21 22 22 23 24 24 23 21 21 23 22 21 23 25 25 25 23 22 24 29 33 32 30 30 27 27 28 30 33 35 35 37 38 40
46 45 44 44 44 44 46 49 50 52 53 53 54 53 52 51 50 48 46 44 43 44 48 49 46 45 39 33 30 24 23 22 20 20 19 20 19 19 23 27 29 30 30 30 35 38 35 34 32 29 28 25 22 21 21 21 20 19 18 18 18 17 18 22 21 19 21 24 23 23 23 22 26 32 33 30 31 32 28 27 29 30 33 34 35 36 37 38
46 46 45 45 45 45 47 49 51 53 55 59 60 58 57 58 57 57 57 55 55 57 57 57 53 48 40 37 35 30 27 24 21 19 19 20 20 18 22 26 29 32 33 33 37 40 37 35 35 35 32 27 23 22 20 19 17 16 17 16 15 15 16 20 22 18 18 22 23 22 23 22 27 33 32 31 34 33 29 29 29 30 32 33 35 34 34 35
47 47 46 46 46 46 46 48 51 55 60 64 65 63 64 66 66 67 66 63 62 60 57 57 54 46 39 38 38 35 31 27 23 22 21 21 20 20 22 25 29 33 38 39 40 40 39 40 43 39 33 27 21 20 18 16 16 15 16 16 14 15 16 18 21 18 15 20 21 21 21 20 25 31 29 30 35 33 30 29 29 30 31 32 34 32 33 34
46 46 45 47 47 46 48 51 55 62 67 71 73 71 69 69 68 70 69 64 63 60 54 51 47 42 39 39 40 39 35 31 27 25 25 24 21 21 24 24 28 36 43 44 43 41 40 43 46 39 30 24 20 19 18 16 17 18 17 17 14 14 16 16 17 16 13 16 17 17 18 19 21 26 27 28 32 31 28 28 29 30 30 30 31 30 31 33
44 44 44 47 48 48 51 57 65 71 72 73 72 65 62 65 68 71 69 63 61 58 49 43 39 36 36 37 40 42 38 34 31 28 27 26 23 24 26 24 30 40 45 43 44 43 43 44 41 33 28 25 23 21 20 19 19 19 19 18 16 15 16 15 14 14 13 12 13 14 15 16 16 19 22 24 26 26 24 25 27 27 27 27 28 28 30 31
45 46 46 47 49 52 57 66 74 73 68 67 65 60 62 70 74 74 67 56 51 47 42 39 38 36 37 38 39 41 40 36 33 29 27 26 23 24 27 27 32 42 43 45 48 47 44 42 34 30 30 30 28 24 21 20 19 18 19 19 17 16 15 16 15 13 13 12 11 11 11 13 12 13 18 19 19 20 20 21 22 22 23 25 26 27 29 29
47 49 49 50 53 59 66 74 74 65 61 64 65 65 70 77 78 71 61 48 40 40 39 37 38 38 39 41 43 43 40 35 32 29 27 24 21 23 30 33 35 42 46 48 51 49 42 37 33 32 34 33 30 26 23 22 20 19 18 18 17 16 16 17 16 14 13 12 12 12 13 13 11 13 18 18 16 17 19 20 21 21 22 23 25 27 29 28
49 50 53 56 60 66 73 74 66 58 60 65 67 71 76 77 70 60 52 42 36 38 39 37 39 40 41 44 46 46 44 37 33 34 30 22 20 22 30 38 39 42 47 49 50 47 39 35 35 36 35 34 31 27 26 24 22 19 17 17 18 17 17 17 17 17 15 15 16 17 18 15 13 18 20 18 14 15 18 20 21 22 22 24 25 27 29 28
49 51 57 61 65 74 77 68 56 56 61 64 68 71 73 70 59 54 50 44 43 44 41 41 44 49 51 51 51 50 49 45 40 40 34 23 23 26 31 41 44 42 46 51 51 47 42 38 38 37 34 33 32 29 27 25 22 20 19 18 19 20 18 17 19 20 19 18 17 18 19 15 15 20 20 17 16 15 17 19 19 21 22 24 26 27 29 29
49 55 61 65 71 78 77 64 53 57 62 64 67 65 66 64 56 55 54 53 56 50 43 44 49 56 58 61 64 57 51 49 42 38 34 26 26 34 42 47 45 42 46 52 53 49 49 45 38 36 35 33 32 29 27 25 24 25 22 18 19 21 19 20 22 21 19 17 16 17 18 16 16 19 18 17 18 16 16 18 17 19 21 23 25 27 29 29
49 58 64 68 75 78 73 62 55 59 63 65 64 60 62 61 56 57 56 58 60 50 46 49 52 57 58 63 70 64 59 56 43 35 32 27 29 40 51 51 44 44 48 55 58 52 52 50 42 39 37 33 30 28 26 25 25 28 25 19 19 20 19 23 23 21 17 16 20 20 17 16 16 20 21 19 19 17 15 17 17 18 21 23 24 26 28 29
50 59 65 70 76 77 70 61 58 61 64 65 62 60 61 57 55 59 58 60 60 52 53 57 58 61 60 62 66 63 63 60 53 47 34 28 38 49 54 51 45 42 46 58 61 52 51 52 46 41 38 34 29 27 26 25 26 29 28 22 20 21 21 23 23 20 17 20 28 26 19 17 16 19 25 24 21 17 14 15 17 18 20 22 24 25 27 28
51 59 65 70 76 75 68 63 60 60 65 66 64 63 61 58 58 58 58 62 60 55 59 63 66 71 70 68 66 63 61 55 57 57 38 30 46 56 55 53 49 43 46 57 56 51 53 55 49 43 39 35 30 27 26 25 27 30 30 25 22 23 25 26 26 22 20 26 31 26 20 18 15 18 28 30 24 16 14 15 16 17 19 20 23 25 26 27
50 58 64 69 75 72 66 64 60 59 65 66 66 65 63 64 63 60 61 61 58 60 63 65 72 79 78 76 74 70 66 57 56 56 44 40 52 56 55 58 56 49 49 54 55 54 54 53 51 47 42 39 33 30 27 25 27 31 31 28 24 25 26 27 28 24 27 32 27 20 20 20 16 17 24 28 22 16 18 18 15 16 18 19 22 24 25 26
50 59 65 70 74 69 64 63 59 59 64 67 71 71 68 69 66 64 64 57 58 67 68 71 80 83 83 82 78 73 70 62 55 54 52 52 59 59 57 60 59 56 54 54 57 60 54 50 50 46 44 43 36 32 28 26 28 31 31 29 28 29 29 28 28 29 33 31 21 17 22 25 20 15 17 23 21 17 19 17 13 14 16 17 20 22 24 24
51 60 68 73 71 64 61 60 58 60 64 71 80 80 76 75 70 66 62 57 67 76 74 78 84 84 86 86 79 71 70 67 56 54 56 57 62 60 56 58 56 56 60 55 57 63 57 50 48 44 44 44 38 33 30 28 29 30 29 30 31 31 32 31 30 29 28 25 21 18 21 27 24 14 15 25 25 18 16 14 12 12 13 16 19 20 23 24
53 63 72 75 70 64 59 56 57 62 69 78 87 86 84 84 77 67 64 67 76 79 78 83 85 84 87 88 81 69 67 67 57 54 58 59 63 58 53 56 51 49 53 50 55 62 56 50 48 46 45 43 39 35 32 28 28 28 27 28 30 30 34 34 31 28 25 23 23 20 23 29 28 19 16 24 29 21 13 13 13 12 13 15 18 20 22 23
55 67 75 76 71 64 57 54 58 64 72 81 87 90 91 91 82 73 74 80 82 80 82 84 84 86 87 85 81 69 64 65 57 57 61 61 65 59 53 58 55 47 47 47 51 57 54 52 50 47 45 42 39 36 31 27 26 26 24 26 28 28 32 32 29 27 24 23 24 23 27 29 26 24 20 21 25 21 15 14 14 15 17 16 17 19 22 22
59 72 78 78 74 66 56 56 62 67 72 75 81 90 94 90 83 79 83 85 85 85 84 81 82 88 87 81 73 66 65 68 62 62 64 61 64 61 54 56 55 49 50 50 49 50 51 49 45 43 44 41 39 36 33 29 28 28 26 25 27 27 28 29 29 28 24 26 29 27 25 24 23 26 26 23 23 19 17 16 15 17 19 18 18 19 21 21
62 76 81 80 76 68 61 63 67 70 72 74 80 88 90 86 83 85 88 87 88 90 87 83 82 85 87 79 69 63 66 70 65 65 67 64 63 63 57 55 51 47 49 48 47 46 46 46 44 45 46 43 41 38 35 33 30 29 28 26 25 24 26 29 31 30 26 30 34 29 23 23 25 26 25 23 20 19 19 16 15 17 19 19 19 19 20 21
63 78 83 81 77 71 68 69 71 73 73 77 83 84 83 85 84 85 90 90 91 93 92 89 85 86 87 80 70 65 66 70 67 67 69 66 64 63 60 58 51 44 46 49 48 44 43 47 47 45 45 44 43 40 35 34 32 30 28 27 25 25 27 29 29 29 29 29 30 28 25 24 23 25 26 23 18 18 19 17 15 17 18 19 19 19 20 21
62 77 84 81 76 73 72 73 74 76 76 79 84 81 78 82 83 85 91 92 93 95 96 94 88 88 88 80 73 68 65 66 65 67 68 66 67 64 59 61 53 43 44 48 49 45 43 48 47 42 42 40 41 43 39 35 34 32 29 28 29 28 29 30 29 29 30 29 26 26 26 23 20 23 28 26 20 18 18 16 16 16 17 18 18 18 19 21
61 76 83 81 77 74 76 78 76 76 78 80 83 82 80 81 82 85 89 91 94 95 96 94 91 92 90 80 74 70 66 63 61 65 65 64 68 63 56 60 53 42 43 45 46 44 40 46 47 42 41 40 40 43 41 37 35 32 31 28 28 29 29 28 27 27 27 27 25 25 24 22 20 22 27 26 23 19 18 17 16 15 16 18 18 17 19 21
62 73 83 86 81 76 76 77 77 76 77 79 80 81 82 83 84 85 86 89 92 94 95 94 93 94 91 81 75 72 70 67 62 64 63 58 61 58 52 56 51 41 41 42 43 42 38 44 49 42 40 42 40 40 39 38 33 31 30 28 28 28 27 26 25 24 25 25 24 25 24 22 21 22 24 24 22 19 18 18 16 14 16 17 17 18 21 22
61 67 80 88 86 83 80 75 75 77 76 74 77 77 78 82 85 86 87 89 91 93 94 94 93 92 88 82 77 71 70 69 63 63 63 57 55 54 48 48 48 42 39 39 40 39 36 41 46 42 40 41 39 36 37 37 33 29 28 28 28 28 27 27 25 23 23 24 23 25 24 22 23 24 22 20 19 16 16 17 16 16 16 18 19 20 22 23
58 62 76 86 86 89 89 77 72 77 76 73 76 78 76 79 83 85 87 90 93 94 94 93 92 91 87 81 75 68 66 65 58 55 57 54 53 55 47 41 43 44 41 38 38 36 36 41 45 43 38 38 37 35 36 38 36 32 30 28 27 28 27 27 27 27 25 24 25 28 26 23 26 28 23 19 17 17 18 19 20 21 19 20 21 23 25 25
55 60 72 82 84 88 91 81 72 76 78 73 75 78 76 77 81 85 88 89 91 94 94 93 91 89 86 80 73 67 62 59 53 49 50 50 50 52 46 39 39 41 40 38 37 35 34 41 47 43 36 35 36 36 37 39 39 35 30 27 26 26 27 26 26 28 27 25 26 30 28 26 28 27 23 21 19 18 20 21 22 25 24 24 25 26 27 27
55 60 68 77 84 88 91 86 78 77 77 73 74 77 76 75 79 85 89 90 90 93 94 92 90 87 83 76 70 64 58 56 53 49 48 49 49 46 42 38 37 37 37 38 37 34 34 40 45 41 37 39 39 37 37 35 35 34 30 28 27 26 26 27 26 27 28 25 25 26 24 24 28 27 22 22 20 17 18 20 21 24 25 26 27 28 28 28
52 56 62 72 84 89 89 88 84 79 76 74 74 75 74 73 77 84 90 91 90 91 92 89 83 81 77 69 64 58 55 56 55 51 49 48 44 42 41 38 35 35 37 37 37 38 38 44 47 41 38 40 38 37 36 32 32 34 33 31 29 27 26 27 27 28 29 26 23 23 21 21 28 30 25 22 20 18 20 22 23 25 26 27 29 29 29 28
49 50 54 63 77 88 89 87 85 81 76 75 75 73 72 72 75 81 87 91 91 92 91 86 78 74 69 63 60 56 54 55 54 53 52 46 39 38 40 37 33 33 36 36 36 39 41 45 48 43 38 36 34 35 35 34 34 35 33 31 28 26 26 27 28 27 26 25 22 22 21 21 25 28 26 24 22 20 21 23 23 26 28 30 30 30 31 30
48 48 51 58 69 82 88 85 82 80 75 75 75 72 71 71 74 79 83 87 92 95 96 94 86 76 67 60 60 58 55 55 57 57 58 52 45 41 38 36 33 31 34 36 34 39 44 45 46 44 41 40 38 36 35 33 32 31 31 31 29 27 26 27 27 25 24 25 23 22 24 22 22 25 25 26 27 25 23 23 23 25 28 31 32 31 32 32
46 47 53 61 65 74 84 82 80 81 77 74 75 72 71 71 73 79 81 81 85 91 96 100 96 83 70 66 66 64 60 60 61 62 64 59 55 50 41 35 31 30 32 34 33 39 46 45 44 44 42 40 39 38 34 32 32 31 30 29 28 26 26 26 26 25 26 27 25 24 26 23 20 23 25 27 29 27 24 23 25 27 29 31 33 32 32 34
48 47 51 59 63 71 84 84 80 80 75 71 72 70 70 70 69 72 77 79 81 84 89 96 99 92 81 74 71 69 68 71 74 74 72 66 61 56 46 36 31 29 31 33 35 40 45 45 45 44 41 38 38 37 35 34 35 33 31 29 28 25 25 25 25 25 26 28 26 25 28 25 20 23 28 31 30 26 24 26 28 30 31 31 33 34 33 35
52 51 51 58 61 66 79 82 78 77 69 64 66 66 66 68 66 64 69 75 80 81 83 88 93 96 94 85 80 76 73 77 82 80 74 70 63 55 46 37 30 29 30 34 37 41 44 46 47 44 43 42 41 40 39 36 34 33 32 30 29 27 25 25 25 25 25 26 24 23 27 25 20 23 30 33 31 26 25 27 29 32 33 32 34 35 34 36
54 53 53 57 57 59 69 75 74 71 64 59 61 63 63 63 63 60 61 67 75 76 77 81 86 91 95 94 91 86 76 72 73 67 63 65 63 56 49 40 32 30 30 33 39 42 43 46 46 44 44 46 46 43 40 36 35 35 33 29 27 27 27 26 26 25 25 26 25 24 25 22 19 23 28 31 30 26 24 26 30 33 35 34 36 38 37 36
54 53 52 55 54 53 61 70 70 66 61 58 58 59 61 61 59 58 59 62 68 70 69 73 77 81 89 93 91 84 75 69 65 57 53 56 56 53 48 41 34 33 32 34 40 42 42 45 45 44 46 51 52 46 40 38 38 35 32 29 27 26 26 26 26 25 25 25 26 25 22 19 19 23 28 30 29 26 24 27 30 33 36 37 38 40 39 39